Commit Graph

  • df0515cebf currentweather, weatherforecast, changed option of decimal comma to any decimal symbol Torben Tigges 2017-12-31 01:15:59 +01:00
  • 46c0e14d67 currentweather, weatherforecast, added option of decimal comma for temperature values to config Torben Tigges 2017-12-30 22:03:26 +01:00
  • 97d7733464 Remove trailing spaces. Michael Teeuw 2017-12-30 21:46:34 +01:00
  • afda84ef09 Electron reverted. Michael Teeuw 2017-12-30 21:39:56 +01:00
  • 61d6e74102 Use an old electron version ... Michael Teeuw 2017-12-30 21:33:56 +01:00
  • 8d74258ce2 Merge pull request #1102 from EricWarnke/patch-1 Michael Teeuw 2017-12-13 09:22:38 +01:00
  • 5dfba0b834 Spelling/gramar fix Eric Warnke 2017-12-12 15:54:33 -07:00
  • 056370ec08 Merge pull request #1092 from sebcaps/develop Michael Teeuw 2017-11-26 20:54:13 +01:00
  • 4e2c254558 Fix #1091 : handle empty description unknown 2017-11-26 11:52:01 +01:00
  • 38c2bdb447 Merge pull request #1090 from rejas/patch-1 Michael Teeuw 2017-11-26 10:42:20 +01:00
  • 0cee4717e2 Fix typo Veeck 2017-11-26 10:02:31 +01:00
  • 221b04c466 Merge pull request #1089 from MichMich/patch-1 Michael Teeuw 2017-11-25 12:15:54 +01:00
  • 237e9b7191 Merge pull request #1088 from reeno/patch-2 Michael Teeuw 2017-11-25 12:15:27 +01:00
  • 9457e44a88 Update CHANGELOG.md Michael Teeuw 2017-11-25 12:14:54 +01:00
  • 80a9d40a44 fixed width Font Awesome symbols reeno 2017-11-25 12:08:40 +01:00
  • 0715325a63 Merge pull request #1081 from ChytilTomas/develop Michael Teeuw 2017-11-17 09:06:06 +01:00
  • 0a026fef0f Update CHANGELOG.md Michael Teeuw 2017-11-17 09:05:33 +01:00
  • 5fbf650d2d Czech translation Tomáš Chytil 2017-11-16 23:06:52 +01:00
  • dabdde0c3f Czech translation Tomáš Chytil 2017-11-16 23:01:00 +01:00
  • b6ca92a7ef Merge pull request #1080 from slametps/develop Michael Teeuw 2017-11-15 08:26:25 +01:00
  • 62f7339170 add some new options slametps 2017-11-15 12:21:45 +07:00
  • eaec682ea7 per feed reloadInterval support slametps 2017-11-15 12:21:22 +07:00
  • 12110a4442 new options slametps 2017-11-15 12:21:02 +07:00
  • df597f53b2 add no-cache entries in HTTP header slametps 2017-11-15 12:19:53 +07:00
  • d7d40254d4 updated slametps 2017-11-15 12:19:19 +07:00
  • e7c4a2cce6 Merge pull request #1072 from morozgrafix/newsfeed_filter Michael Teeuw 2017-11-01 11:53:00 +01:00
  • 0eb1c0cea6 Added ability to set a list of prohibited words that will be filtered out of newsfeed Sergey Morozov 2017-11-01 03:40:32 -07:00
  • 07d35a8513 Remove todo item. Michael Teeuw 2017-10-19 16:52:57 +02:00
  • 16c887814e Show humidity. Michael Teeuw 2017-10-19 16:51:51 +02:00
  • 22a50b72fd Show unit. Michael Teeuw 2017-10-19 16:43:12 +02:00
  • a79e1b6ca1 Rename templates to .njk files to allow syntax highlighting. Michael Teeuw 2017-10-18 13:52:11 +02:00
  • 995296ef53 Merge branch 'develop' into weather-refactor Michael Teeuw 2017-10-18 13:49:53 +02:00
  • f4d5996a88 Allow use of .njk extension for template files. Michael Teeuw 2017-10-18 13:49:03 +02:00
  • ab732b5435 Make all visiable values dynamic. Michael Teeuw 2017-10-18 13:38:56 +02:00
  • 241ff5cb6e Set temperature rounding. Michael Teeuw 2017-10-18 12:19:02 +02:00
  • ec2169e079 Merge branch 'develop' into weather-refactor Michael Teeuw 2017-10-18 12:01:44 +02:00
  • c75662e720 Remove trailing spaces. Michael Teeuw 2017-10-18 12:01:06 +02:00
  • d567fd4842 Merge branch 'develop' into weather-refactor Michael Teeuw 2017-10-18 11:59:29 +02:00
  • 0776dfc80e Minor changes. Michael Teeuw 2017-10-18 11:58:45 +02:00
  • 79a662fb93 Log nunjucks parsing errors for debugging. Michael Teeuw 2017-10-18 11:55:02 +02:00
  • 8b009b7ee9 Add Catalan translation. Michael Teeuw 2017-10-18 10:15:47 +02:00
  • c4face30cc Update CHANGELOG.md Michael Teeuw 2017-10-18 10:14:54 +02:00
  • d4dbb5cb51 Translation to Catalan. sergibarca 2017-10-17 22:24:13 +02:00
  • 1e27187652 Merge pull request #1060 from nhubbard/revert-1053-remove-package-lock.json Michael Teeuw 2017-10-16 14:46:39 +02:00
  • 3ff278291f Merge pull request #1061 from qistoph/difflink Michael Teeuw 2017-10-16 14:43:55 +02:00
  • 4e8bf216df Update CHANGELOG Chris van Marle 2017-10-16 14:26:15 +02:00
  • e7b9100f1c Add Github link to update info Chris van Marle 2017-10-16 09:35:25 +02:00
  • 08aa9790f3 Fix lint issues. Michael Teeuw 2017-10-16 14:17:12 +02:00
  • 5f13fd2dca Merge pull request #1058 from shbatm/develop_1056 Michael Teeuw 2017-10-16 13:59:40 +02:00
  • f4c6f42c38 Added default implementation of stop() function. shbatm 2017-10-15 18:44:11 -05:00
  • 6a10d08189 Revert "Delete large package-lock.json files" Nicholas Hubbard 2017-10-13 19:59:39 -04:00
  • f646360af6 Gracefully shutdown node_helpers (Fixes #1056) shbatm 2017-10-13 16:43:11 -05:00
  • 95f265ebbf Merge pull request #1057 from Stromwerk/develop Michael Teeuw 2017-10-13 21:05:16 +02:00
  • 39d0142993 - Add Bulgarian translations for MagicMirror² and Alert module Kalin Koychev 2017-10-13 21:51:21 +03:00
  • da16172244 Merge pull request #1055 from qistoph/commentscheck Michael Teeuw 2017-10-13 20:39:44 +02:00
  • 71aded0fae Merge pull request #1054 from qistoph/gruntfix Michael Teeuw 2017-10-13 20:39:04 +02:00
  • e173b3ea41 Merge pull request #1053 from roramirez/remove-package-lock.json Michael Teeuw 2017-10-13 20:38:18 +02:00
  • 6c4f9466b9 Don't ignore comments in trailing whitespace check Chris van Marle 2017-10-12 11:06:57 +02:00
  • 664196c5ef Fix some trailing whitespace grunt errors Chris van Marle 2017-10-12 10:23:40 +02:00
  • c8d5044e7a Merge pull request #1051 from egin10/patch-1 Michael Teeuw 2017-10-10 17:20:28 +02:00
  • d8c31fe560 Merge pull request #1049 from egin10/patch-2 Michael Teeuw 2017-10-10 17:19:50 +02:00
  • 516db855f5 Delete large package-lock.json files Rodrigo Ramírez Norambuena 2017-10-08 23:40:36 -03:00
  • 9cdcf08ab1 correcting translation for indonesian language Ginanjar S.B 2017-10-09 08:05:11 +07:00
  • 326fa73b22 Updating and Correcting Translation Ginanjar 2017-10-08 03:03:29 +07:00
  • 79cacefd07 Merge pull request #1047 from jannickfahlbusch/useHTTPSOpenWeatherMap Michael Teeuw 2017-10-06 21:32:49 +02:00
  • 07e28bfee6 Use HTTPS instead of HTTP Jannick Fahlbusch 2017-10-06 20:26:03 +02:00
  • 980b017fbe Merge pull request #1046 from wbleek/master Michael Teeuw 2017-10-03 22:13:21 +02:00
  • 4567fd1eb0 Merge branch 'develop' into master Wolf-Gideon Bleek 2017-10-03 21:29:10 +02:00
  • 8c150c23f3 moved weekNumber into field and adjusted language handling accordingly [issue #910] Wolf-Gideon Bleek 2017-10-03 21:25:30 +02:00
  • b4fd570269 moved weekNumber into field and adjusted language handling accordingly [issue #910] Wolf-Gideon Bleek 2017-10-03 21:18:25 +02:00
  • 681a845ef3 Add Darksky provider. Michael Teeuw 2017-10-03 14:38:54 +02:00
  • 6e051d73c1 Merge pull request #1044 from cederstrom/honor-calendar-maximum-entries Michael Teeuw 2017-10-01 21:51:33 +02:00
  • e381e1a313 Merge pull request #1042 from roramirez/readme-localhost-bind Michael Teeuw 2017-10-01 21:49:47 +02:00
  • 2d03ff63cf Slice the list of all events to honor config.maximumEntries Andreas Cederström 2017-10-01 21:36:43 +02:00
  • 309de631ed Updated readme about default value for address configuration changed it in https://github.com/MichMich/MagicMirror/commit/2f05228d Rodrigo Ramírez Norambuena 2017-10-01 15:01:34 -03:00
  • ad240cf52f Fix lint errors. Michael Teeuw 2017-10-01 16:19:14 +02:00
  • 99e3a47dde Use templates to render weather. Michael Teeuw 2017-10-01 13:50:15 +02:00
  • 3fa810b7b8 Merge branch 'develop' into weather-refactor Michael Teeuw 2017-10-01 13:25:52 +02:00
  • bad7316b80 Allow html tags in text string. Michael Teeuw 2017-10-01 13:22:29 +02:00
  • 4757c36233 Updated changelog and minor fix example Michael Teeuw 2017-10-01 13:16:07 +02:00
  • 9ca6180207 Merge branch 'templates' into develop Michael Teeuw 2017-10-01 13:10:25 +02:00
  • 30179ad977 Setup of new dev release. Michael Teeuw 2017-10-01 12:39:48 +02:00
  • b799609749 Merge pull request #1039 from MichMich/develop v2.1.3 v.2.1.3 Michael Teeuw 2017-10-01 12:36:53 +02:00
  • efb6994ae7 Changes in preparation of 2.1.3 Michael Teeuw 2017-10-01 12:34:54 +02:00
  • cd129fb055 Revert "Fix Indentation?" Nicholas Hubbard 2017-09-30 19:44:54 -04:00
  • 880a977dd6 Merge pull request #1038 from roramirez/templates-fixes Michael Teeuw 2017-09-30 13:39:00 +02:00
  • 6eceffb403 Merge pull request #1037 from roramirez/lint-fix Michael Teeuw 2017-09-30 13:36:38 +02:00
  • 795e33881c This fix the follow things: * The default screen on missing configuration file and syntax error. * Tests Rodrigo Ramírez Norambuena 2017-09-29 19:10:03 -03:00
  • d310c3857f Little lint fix Rodrigo Ramírez Norambuena 2017-09-29 18:33:17 -03:00
  • 837e275bfd Update fork Nicholas Hubbard 2017-09-29 10:11:46 -04:00
  • 7be6031e19 Merge branch 'weather-refactor' of https://github.com/MichMich/MagicMirror into weather-refactor Nicholas Hubbard 2017-09-29 10:11:22 -04:00
  • 8c53908cc4 Update CHANGELOG.md Michael Teeuw 2017-09-29 13:37:24 +02:00
  • 589b54984a Add slack badge. Michael Teeuw 2017-09-29 13:36:44 +02:00
  • 3f30ed5251 Add info about weather forecast. Michael Teeuw 2017-09-29 13:01:08 +02:00
  • 3f9181905a Fix typo's. Michael Teeuw 2017-09-29 11:05:59 +02:00
  • 29f3a81666 Fix weather forecast. Michael Teeuw 2017-09-29 10:04:42 +02:00
  • 5efc43260e Switch to async rendering. Michael Teeuw 2017-09-28 16:43:38 +02:00
  • e01794a07f First Nunchucks Implementation. Michael Teeuw 2017-09-28 16:11:25 +02:00
  • 5fde095a6f Merge pull request #1024 from roramirez/openweathermap-forescast Michael Teeuw 2017-09-28 14:44:13 +02:00
  • 3237af2d85 Add translation: Welsh (Cymraeg) Michael Teeuw 2017-09-28 14:42:21 +02:00